GW0672 Weather Reports


time (UTC)temp
C
wind
direction
speed
KPH
gust
KPH
rain 1hr
cm
rain 24hr
cm
rain mn
cm
humidity
%
barometer
mb
20260503175830 16 258 11.3 14.5 0.00 0.00 0.00 44 1012.3
20260503175328 16 302 14.5 16.1 0.00 0.00 0.00 43 1012.1
20260503174823 16 285 8.0 11.3 0.00 0.00 0.00 45 1012.2
20260503174322 15 292 8.0 9.7 0.00 0.00 0.00 47 1012.3
20260503173817 15 265 4.8 4.8 0.00 0.00 0.00 47 1012.5
20260503173314 15 288 6.4 9.7 0.00 0.00 0.00 46 1012.7
20260503172810 15 245 14.5 24.1 0.00 0.00 0.00 46 1012.7
20260503172308 15 266 8.0 11.3 0.00 0.00 0.00 48 1012.8
20260503171803 15 20 6.4 11.3 0.00 0.00 0.00 47 1012.7
20260503171301 15 245 8.0 9.7 0.00 0.00 0.00 46 1012.9
20260503170758 15 274 8.0 14.5 0.00 0.00 0.00 45 1013.0
20260503170255 15 296 12.9 19.3 0.00 0.00 0.00 45 1013.1
20260503160217 13 286 4.8 8.0 0.00 0.00 0.00 51 1013.6
20260503150647 12 260 4.8 8.0 0.00 0.00 0.00 48 1014.4
20260503150143 12 251 8.0 9.7 0.00 0.00 0.00 48 1014.1
20260503140108 11 254 9.7 19.3 0.00 0.00 0.00 52 1014.3
20260503131037 9 296 8.0 11.3 0.00 0.00 0.00 55 1014.4
20260503130534 9 270 4.8 9.7 0.00 0.00 0.00 54 1014.4
20260503110425 5 264 6.4 8.0 0.00 0.00 0.00 61 1014.5
20260503090315 1 278 0.0 0.0 0.00 0.00 0.00 75 1015.5
20260503081243 1 285 0.0 0.0 0.00 0.00 0.00 76 1015.9
20260503080738 1 287 0.0 0.0 0.00 0.00 0.00 76 1015.7
20260503080236 1 287 0.0 0.0 0.00 0.00 0.00 74 1016.0
20260503072712 1 283 0.0 0.0 0.00 0.00 0.00 75 1016.0
20260503072209 1 275 0.0 0.0 0.00 0.00 0.00 77 1016.0
20260503071706 1 277 0.0 0.0 0.00 0.00 0.00 75 1016.1
20260503071203 1 284 0.0 0.0 0.00 0.00 0.00 76 1016.2
20260503070659 1 283 0.0 0.0 0.00 0.00 0.00 75 1016.4
20260503070158 1 283 0.0 0.0 0.00 0.00 0.00 73 1016.4
20260503060122 3 290 0.0 0.0 0.00 0.00 0.00 66 1016.8
20260503055114 3 259 6.4 8.0 0.00 0.00 0.00 66 1016.9
20260503054609 3 281 0.0 0.0 0.00 0.00 0.00 66 1016.9
20260503054106 3 279 3.2 4.8 0.00 0.00 0.00 64 1016.8
20260503053604 3 284 0.0 0.0 0.00 0.00 0.00 64 1017.0
20260503053102 3 284 3.2 3.2 0.00 0.00 0.00 64 1016.9
20260503052558 4 285 1.6 3.2 0.00 0.00 0.00 63 1016.9
20260503052055 4 277 3.2 3.2 0.00 0.00 0.00 62 1016.8
20260503051550 4 278 1.6 3.2 0.00 0.00 0.00 62 1016.8
20260503051048 4 279 3.2 4.8 0.00 0.00 0.00 62 1016.7
20260503050544 4 281 0.0 0.0 0.00 0.00 0.00 61 1016.8
20260503050042 5 279 1.6 3.2 0.00 0.00 0.00 61 1017.0
20260503045538 5 276 3.2 3.2 0.00 0.00 0.00 60 1016.9
20260503045036 5 282 8.0 11.3 0.00 0.00 0.00 59 1017.0
20260503044532 5 283 0.0 3.2 0.00 0.00 0.00 59 1017.0
20260503044030 5 283 3.2 3.2 0.00 0.00 0.00 59 1017.2
20260503043526 5 280 3.2 4.8 0.00 0.00 0.00 59 1017.1
20260503043023 5 280 1.6 3.2 0.00 0.00 0.00 59 1017.1
20260503042520 5 276 8.0 9.7 0.00 0.00 0.00 58 1017.0
20260503042016 5 283 3.2 3.2 0.00 0.00 0.00 59 1017.0
20260503041513 5 282 4.8 8.0 0.00 0.00 0.00 57 1017.1
20260503041011 5 294 1.6 3.2 0.00 0.00 0.00 59 1017.3
20260503040508 5 236 11.3 20.9 0.00 0.00 0.00 60 1017.0
20260503040005 5 279 6.4 8.0 0.00 0.00 0.00 59 1017.0
20260503035502 5 258 3.2 4.8 0.00 0.00 0.00 61 1017.1
20260503034959 5 292 3.2 4.8 0.00 0.00 0.00 62 1017.0
20260503034456 5 247 3.2 4.8 0.00 0.00 0.00 62 1016.9
20260503033953 5 288 6.4 8.0 0.00 0.00 0.00 63 1016.9
20260503033450 4 278 3.2 3.2 0.00 0.00 0.00 65 1016.8
20260503032949 4 284 1.6 3.2 0.00 0.00 0.00 66 1016.9
20260503032447 4 264 0.0 3.2 0.00 0.00 0.00 68 1017.2
20260503031944 4 278 1.6 3.2 0.00 0.00 0.00 66 1017.2
20260503031442 3 288 1.6 3.2 0.00 0.00 0.00 69 1017.4
20260503030938 3 286 0.0 0.0 0.00 0.00 0.00 71 1017.4
20260503030435 3 284 0.0 3.2 0.00 0.00 0.00 71 1017.6
20260503025932 3 291 0.0 3.2 0.00 0.00 0.00 72 1017.4
20260503025429 3 285 0.0 0.0 0.00 0.00 0.00 74 1017.5
20260503024926 3 276 0.0 0.0 0.00 0.00 0.00 72 1017.5
20260503024422 3 284 0.0 0.0 0.00 0.00 0.00 72 1017.5
20260503023920 3 284 0.0 0.0 0.00 0.00 0.00 73 1017.6
20260503023417 3 284 0.0 0.0 0.00 0.00 0.00 73 1017.7
20260503022913 3 294 0.0 0.0 0.00 0.00 0.00 73 1017.7
20260503022408 3 283 0.0 0.0 0.00 0.00 0.00 73 1017.7
20260503021904 3 283 0.0 0.0 0.00 0.00 0.00 72 1017.6
20260503021401 3 281 0.0 0.0 0.00 0.00 0.00 74 1017.6
20260503020858 3 281 0.0 0.0 0.00 0.00 0.00 74 1017.6
20260503020356 3 284 0.0 0.0 0.00 0.00 0.00 73 1017.4
20260503015852 3 282 0.0 0.0 0.00 0.00 0.00 73 1017.7
20260503015349 3 284 0.0 0.0 0.00 0.00 0.00 73 1017.6
20260503014845 3 281 0.0 0.0 0.00 0.00 0.00 73 1017.5
20260503014343 3 284 0.0 0.0 0.00 0.00 0.00 72 1017.4
20260503013840 3 285 0.0 0.0 0.00 0.00 0.00 72 1017.4
20260503013337 3 284 0.0 0.0 0.00 0.00 0.00 72 1017.4
20260503012834 3 283 0.0 0.0 0.00 0.00 0.00 71 1017.5
20260503012332 4 283 0.0 0.0 0.00 0.00 0.00 70 1017.5
20260503011828 4 283 0.0 0.0 0.00 0.00 0.00 69 1017.2
20260503011325 4 284 0.0 0.0 0.00 0.00 0.00 68 1017.4
20260503010822 5 283 0.0 0.0 0.00 0.00 0.00 66 1017.3
20260503010319 5 285 0.0 0.0 0.00 0.00 0.00 66 1017.4
20260503005815 5 285 0.0 0.0 0.00 0.00 0.00 67 1017.3
20260503005313 5 285 0.0 0.0 0.00 0.00 0.00 65 1017.2
20260503004809 5 284 0.0 0.0 0.00 0.00 0.00 64 1017.1
20260503004307 6 283 0.0 0.0 0.00 0.00 0.00 62 1017.2
20260503003804 6 284 0.0 0.0 0.00 0.00 0.00 59 1017.2
20260503003301 6 283 0.0 0.0 0.00 0.00 0.00 58 1017.3
20260503002758 7 259 0.0 3.2 0.00 0.00 0.00 54 1017.2
20260503002255 7 274 0.0 0.0 0.00 0.00 0.00 55 1017.1
20260503001751 7 271 0.0 0.0 0.00 0.00 0.00 53 1017.1
20260503001248 8 253 3.2 4.8 0.00 0.00 0.00 49 1017.1
20260503000745 8 266 1.6 3.2 0.00 0.00 0.00 48 1017.1
20260503000242 8 290 4.8 8.0 0.00 0.00 0.00 46 1017.1
20260502235739 9 283 1.6 3.2 0.00 0.00 0.00 45 1017.1
20260502235237 9 288 3.2 3.2 0.00 0.00 0.00 44 1017.1
20260502234733 10 252 6.4 9.7 0.00 0.00 0.00 44 1017.3
20260502234231 10 304 4.8 8.0 0.00 0.00 0.00 44 1017.1
20260502233727 9 289 6.4 8.0 0.00 0.00 0.00 43 1017.3
20260502233224 10 260 4.8 4.8 0.00 0.00 0.00 43 1017.2
20260502232719 10 250 6.4 8.0 0.00 0.00 0.00 43 1017.3
20260502232217 8 279 4.8 4.8 0.00 0.00 0.00 43 1017.3
20260502231713 8 288 3.2 3.2 0.00 0.00 0.00 43 1017.3
20260502231211 8 293 3.2 4.8 0.00 0.00 0.00 45 1017.4
20260502230710 8 292 0.0 0.0 0.00 0.00 0.00 47 1017.3
20260502230207 8 315 1.6 3.2 0.00 0.00 0.00 46 1017.4
20260502225703 8 287 3.2 4.8 0.00 0.00 0.00 45 1017.5
20260502225200 8 289 3.2 4.8 0.00 0.00 0.00 44 1017.5
20260502224656 8 281 9.7 11.3 0.00 0.00 0.00 43 1017.4
20260502224153 8 305 6.4 8.0 0.00 0.00 0.00 43 1017.5
20260502223651 9 277 9.7 11.3 0.00 0.00 0.00 43 1017.3
20260502223149 9 19 4.8 4.8 0.00 0.00 0.00 42 1017.2
20260502222647 10 293 3.2 8.0 0.00 0.00 0.00 42 1017.4
20260502222143 9 290 4.8 4.8 0.00 0.00 0.00 42 1017.6
20260502221638 8 279 3.2 4.8 0.00 0.00 0.00 45 1017.5
20260502221135 8 289 6.4 8.0 0.00 0.00 0.00 44 1017.5
20260502220631 8 299 1.6 3.2 0.00 0.00 0.00 46 1017.5
20260502220122 8 293 4.8 8.0 0.00 0.00 0.00 43 1017.4
20260502215619 8 278 11.3 14.5 0.00 0.00 0.00 43 1017.6
20260502215116 8 270 4.8 8.0 0.00 0.00 0.00 45 1017.7
20260502214613 8 288 6.4 8.0 0.00 0.00 0.00 45 1017.5
20260502214110 9 297 12.9 16.1 0.00 0.00 0.00 44 1017.7
20260502213608 9 281 16.1 19.3 0.00 0.00 0.00 41 1017.7
20260502213105 10 285 9.7 14.5 0.00 0.00 0.00 42 1017.6
20260502212604 9 272 4.8 4.8 0.00 0.00 0.00 44 1017.3
20260502212101 8 252 6.4 8.0 0.00 0.00 0.00 43 1017.5
20260502211556 8 275 6.4 9.7 0.00 0.00 0.00 44 1017.5
20260502211054 8 304 6.4 8.0 0.00 0.00 0.00 44 1017.7
20260502210551 8 250 4.8 4.8 0.00 0.00 0.00 47 1017.7
20260502210048 8 286 6.4 8.0 0.00 0.00 0.00 44 1017.9
20260502205544 8 262 6.4 11.3 0.00 0.00 0.00 45 1017.9
20260502205042 8 290 12.9 19.3 0.00 0.00 0.00 44 1017.9
20260502204538 8 277 6.4 8.0 0.00 0.00 0.00 44 1017.9
20260502204036 8 297 6.4 8.0 0.00 0.00 0.00 45 1017.9
20260502203533 8 307 6.4 9.7 0.00 0.00 0.00 45 1018.0
20260502203030 8 275 4.8 4.8 0.00 0.00 0.00 47 1017.8
20260502202526 8 294 8.0 9.7 0.00 0.00 0.00 45 1018.0
20260502202025 8 293 11.3 19.3 0.00 0.00 0.00 46 1017.9
20260502201520 8 261 8.0 11.3 0.00 0.00 0.00 44 1018.0
20260502201016 8 260 19.3 24.1 0.00 0.00 0.00 44 1018.4
20260502200513 8 321 4.8 4.8 0.00 0.00 0.00 46 1018.1
20260502200011 8 305 9.7 14.5 0.00 0.00 0.00 44 1018.3
20260502195508 8 290 8.0 11.3 0.00 0.00 0.00 47 1018.1
20260502195003 9 290 9.7 14.5 0.00 0.00 0.00 45 1018.2
20260502194501 8 277 16.1 16.1 0.00 0.00 0.00 46 1018.3
20260502193956 8 291 14.5 16.1 0.00 0.00 0.00 45 1018.6
20260502193454 8 282 8.0 11.3 0.00 0.00 0.00 47 1018.5
20260502192949 7 301 8.0 11.3 0.00 0.00 0.00 46 1018.8
20260502192447 8 287 17.7 25.7 0.00 0.00 0.00 46 1019.0
20260502191943 8 242 3.2 4.8 0.00 0.00 0.00 46 1018.7
20260502191441 8 300 12.9 16.1 0.00 0.00 0.00 45 1018.8
20260502190939 8 318 12.9 19.3 0.00 0.00 0.00 47 1018.7
20260502190436 8 241 4.8 8.0 0.00 0.00 0.00 48 1018.9
20260502185932 8 294 8.0 11.3 0.00 0.00 0.00 46 1018.9
20260502185427 9 290 6.4 9.7 0.00 0.00 0.00 44 1019.0
20260502184925 7 302 9.7 14.5 0.00 0.00 0.00 48 1019.2
20260502184420 7 279 8.0 9.7 0.00 0.00 0.00 49 1019.1
20260502183917 8 327 12.9 16.1 0.00 0.00 0.00 48 1019.1
20260502183413 8 312 4.8 8.0 0.00 0.00 0.00 50 1019.0
20260502182909 7 266 6.4 8.0 0.00 0.00 0.00 45 1019.1
20260502182404 7 304 9.7 11.3 0.00 0.00 0.00 49 1019.2
20260502181901 7 293 14.5 19.3 0.00 0.00 0.00 53 1019.1
20260502181359 7 254 8.0 9.7 0.00 0.00 0.00 53 1019.3
20260502180857 7 284 6.4 9.7 0.00 0.00 0.00 51 1019.3
20260502180354 7 297 8.0 11.3 0.00 0.00 0.00 47 1019.3